TimeEDT,TemperatureF,Dew PointF,Humidity,Sea Level PressureIn,VisibilityMPH,Wind Direction,Wind SpeedMPH,Gust SpeedMPH,PrecipitationIn,Events,Conditions,WindDirDegrees,DateUTC
12:15 AM,33.4,25.5,73,29.79,10.0,North,11.5,17.3,N/A,,Overcast,10,2014-03-12 04:15:00
12:34 AM,32.9,24.6,72,29.78,10.0,North,15.0,-,N/A,,Overcast,10,2014-03-12 04:34:00
12:55 AM,32.2,23.7,71,29.77,10.0,North,9.2,-,N/A,,Overcast,10,2014-03-12 04:55:00
1:15 AM,32.0,23.5,71,29.78,10.0,North,9.2,-,N/A,,Overcast,10,2014-03-12 05:15:00
1:34 AM,31.6,22.3,68,29.77,10.0,North,9.2,16.1,N/A,,Overcast,10,2014-03-12 05:34:00
1:55 AM,31.5,19.4,61,29.76,10.0,North,12.7,17.3,N/A,,Overcast,10,2014-03-12 05:55:00
2:15 AM,31.1,17.8,58,29.76,10.0,North,10.4,17.3,N/A,,Overcast,10,2014-03-12 06:15:00
2:35 AM,30.6,16.9,57,29.76,10.0,North,8.1,-,N/A,,Overcast,10,2014-03-12 06:35:00
2:55 AM,30.2,16.9,58,29.75,10.0,North,10.4,-,N/A,,Overcast,10,2014-03-12 06:55:00
3:14 AM,29.8,17.1,59,29.75,10.0,NNE,9.2,-,N/A,,Overcast,20,2014-03-12 07:14:00
3:35 AM,29.7,16.5,58,29.73,10.0,NNE,13.8,17.3,N/A,,Overcast,20,2014-03-12 07:35:00
3:55 AM,29.3,16.5,59,29.73,10.0,NNE,9.2,17.3,N/A,,Overcast,30,2014-03-12 07:55:00
4:14 AM,29.3,16.3,58,29.72,10.0,NNE,10.4,18.4,N/A,,Overcast,30,2014-03-12 08:14:00
4:35 AM,29.1,16.7,60,29.72,10.0,NNE,9.2,16.1,N/A,,Overcast,30,2014-03-12 08:35:00
4:55 AM,28.9,16.9,61,29.71,10.0,NE,9.2,-,N/A,,Overcast,40,2014-03-12 08:55:00
5:14 AM,28.9,17.4,62,29.72,10.0,NNE,9.2,-,N/A,,Overcast,30,2014-03-12 09:14:00
5:35 AM,28.8,18.0,64,29.73,10.0,NNE,11.5,-,N/A,,Overcast,20,2014-03-12 09:35:00
5:55 AM,28.6,18.0,64,29.73,10.0,NNE,8.1,16.1,N/A,,Overcast,20,2014-03-12 09:55:00
6:14 AM,28.4,18.3,66,29.74,10.0,NNE,11.5,-,N/A,,Overcast,20,2014-03-12 10:14:00
6:35 AM,28.2,18.5,67,29.76,10.0,NNE,9.2,17.3,N/A,,Overcast,20,2014-03-12 10:35:00
6:55 AM,27.9,19.2,70,29.76,10.0,NNE,11.5,16.1,N/A,,Overcast,20,2014-03-12 10:55:00
7:14 AM,27.5,19.4,72,29.75,10.0,NNE,12.7,18.4,N/A,,Overcast,20,2014-03-12 11:14:00
7:35 AM,27.0,19.2,73,29.75,10.0,North,10.4,16.1,N/A,,Mostly Cloudy,10,2014-03-12 11:35:00
7:55 AM,26.6,19.2,74,29.75,10.0,North,12.7,20.7,N/A,,Scattered Clouds,10,2014-03-12 11:55:00
8:15 AM,25.9,18.9,75,29.75,10.0,North,13.8,20.7,N/A,,Scattered Clouds,10,2014-03-12 12:15:00
8:35 AM,25.7,18.7,75,29.75,10.0,North,11.5,19.6,N/A,,Scattered Clouds,360,2014-03-12 12:35:00
8:55 AM,24.8,18.3,76,29.75,10.0,North,17.3,-,N/A,,Clear,10,2014-03-12 12:55:00
9:15 AM,24.1,17.6,76,29.76,10.0,North,12.7,19.6,N/A,,Mostly Cloudy,350,2014-03-12 13:15:00
9:35 AM,22.8,16.7,77,29.77,10.0,North,17.3,24.2,N/A,,Overcast,360,2014-03-12 13:35:00
9:54 AM,22.1,15.8,77,29.78,10.0,North,18.4,23.0,N/A,,Overcast,350,2014-03-12 13:54:00
10:15 AM,21.4,15.1,77,29.80,10.0,North,16.1,-,N/A,,Overcast,350,2014-03-12 14:15:00
10:35 AM,20.3,13.8,76,29.80,10.0,North,15.0,23.0,N/A,,Overcast,360,2014-03-12 14:35:00
10:54 AM,20.1,12.9,74,29.80,10.0,North,18.4,24.2,N/A,Snow,Light Snow,360,2014-03-12 14:54:00
11:15 AM,20.1,13.1,74,29.81,10.0,North,15.0,24.2,N/A,Snow,Light Snow,350,2014-03-12 15:15:00
11:35 AM,20.7,12.6,71,29.81,10.0,North,13.8,-,N/A,Snow,Light Snow,350,2014-03-12 15:35:00
11:55 AM,21.7,12.6,68,29.80,10.0,North,17.3,20.7,N/A,,Scattered Clouds,350,2014-03-12 15:55:00
12:15 PM,21.7,12.0,66,29.81,10.0,North,17.3,24.2,N/A,,Scattered Clouds,10,2014-03-12 16:15:00
12:34 PM,22.1,11.7,64,29.81,10.0,NNE,16.1,21.9,N/A,,Mostly Cloudy,20,2014-03-12 16:34:00
12:55 PM,22.1,10.4,61,29.81,10.0,North,12.7,21.9,N/A,,Scattered Clouds,10,2014-03-12 16:55:00
1:15 PM,22.1,10.4,61,29.81,10.0,NNE,9.2,13.8,N/A,,Clear,20,2014-03-12 17:15:00
1:34 PM,22.1,8.8,57,29.81,10.0,North,15.0,21.9,N/A,,Clear,360,2014-03-12 17:34:00
1:55 PM,22.1,8.2,55,29.82,10.0,North,15.0,21.9,N/A,,Clear,10,2014-03-12 17:55:00
2:15 PM,21.9,8.1,55,29.82,10.0,North,13.8,24.2,N/A,,Clear,10,2014-03-12 18:15:00
2:34 PM,21.7,7.7,55,29.82,10.0,North,11.5,23.0,N/A,,Clear,10,2014-03-12 18:34:00
2:55 PM,21.9,6.6,52,29.82,10.0,North,15.0,19.6,N/A,,Clear,10,2014-03-12 18:55:00
3:15 PM,21.9,6.1,51,29.83,10.0,North,11.5,20.7,N/A,,Clear,360,2014-03-12 19:15:00
3:35 PM,21.7,5.9,51,29.83,10.0,North,15.0,21.9,N/A,,Clear,10,2014-03-12 19:35:00
3:55 PM,22.1,7.0,52,29.84,10.0,NNE,13.8,19.6,N/A,,Clear,30,2014-03-12 19:55:00
4:14 PM,21.7,6.1,51,29.85,10.0,North,15.0,21.9,N/A,,Clear,10,2014-03-12 20:14:00
4:35 PM,21.4,4.6,49,29.86,10.0,North,13.8,21.9,N/A,,Clear,360,2014-03-12 20:35:00
4:55 PM,21.0,3.2,46,29.87,10.0,North,18.4,25.3,N/A,,Clear,10,2014-03-12 20:55:00
5:14 PM,20.8,2.7,45,29.88,10.0,North,13.8,23.0,N/A,,Clear,10,2014-03-12 21:14:00
5:35 PM,19.9,-0.0,42,29.89,10.0,North,13.8,18.4,N/A,,Clear,10,2014-03-12 21:35:00
5:55 PM,20.1,1.0,44,29.90,10.0,North,10.4,18.4,N/A,,Clear,360,2014-03-12 21:55:00
6:14 PM,19.2,-3.5,37,29.91,10.0,North,18.4,23.0,N/A,,Clear,10,2014-03-12 22:14:00
6:35 PM,18.3,-4.5,36,29.92,10.0,North,17.3,25.3,N/A,,Clear,360,2014-03-12 22:35:00
6:55 PM,17.6,-3.1,40,29.94,10.0,North,13.8,-,N/A,,Clear,10,2014-03-12 22:55:00
7:14 PM,16.7,-4.5,39,29.96,10.0,North,12.7,18.4,N/A,,Clear,360,2014-03-12 23:14:00
7:35 PM,15.6,-5.3,39,29.97,10.0,North,12.7,-,N/A,,Clear,10,2014-03-12 23:35:00
7:55 PM,14.7,-5.6,40,29.98,10.0,North,12.7,17.3,N/A,,Clear,360,2014-03-12 23:55:00
8:14 PM,14.0,-5.3,42,29.99,10.0,North,8.1,-,N/A,,Clear,350,2014-03-13 00:14:00
8:35 PM,13.3,-4.7,45,30.00,10.0,North,10.4,-,N/A,,Clear,350,2014-03-13 00:35:00
8:55 PM,12.9,-3.3,49,30.00,10.0,NNW,9.2,-,N/A,,Clear,340,2014-03-13 00:55:00
9:14 PM,12.4,-3.5,49,30.01,10.0,NNW,9.2,16.1,N/A,,Clear,340,2014-03-13 01:14:00
9:35 PM,11.7,-3.1,52,30.02,10.0,North,11.5,16.1,N/A,,Clear,350,2014-03-13 01:35:00
9:54 PM,10.9,-2.6,55,30.02,10.0,North,9.2,-,N/A,,Clear,350,2014-03-13 01:54:00
10:15 PM,10.4,-2.2,57,30.03,10.0,North,10.4,-,N/A,,Clear,360,2014-03-13 02:15:00
10:35 PM,9.5,-1.7,61,30.03,10.0,North,5.8,-,N/A,,Clear,360,2014-03-13 02:35:00
10:54 PM,9.5,-1.8,60,30.03,10.0,North,8.1,-,N/A,,Clear,360,2014-03-13 02:54:00
11:15 PM,9.1,-1.3,63,30.04,10.0,North,10.4,-,N/A,,Clear,360,2014-03-13 03:15:00
11:35 PM,8.8,-1.3,64,30.04,10.0,North,9.2,-,N/A,,Clear,350,2014-03-13 03:35:00
11:54 PM,8.6,-0.9,65,30.04,10.0,North,6.9,-,N/A,,Clear,350,2014-03-13 03:54:00